Starlink 3904

operational
NORAD ID: 52464 Int'l Des: 2022-049 Owner: SPXS Country: US Constellation: starlink
LEOCIRCULAR

Über Starlink 3904

Beschreibung wird geladen...

Live-Position

3D-Globus wird geladen...

Nächste Überflüge

Höhenverlauf

Altitude vs Time

uPlot chart will show altitude changes over time

Zweizeiliger Elementsatz

1 52464U 22049P 25351.60091794 -.00000073 00000-0 13468-4 0 9997
2 52464 53.2192 67.6313 0001201 92.3067 267.8063 15.08841935199850
Epoch: 17. Dez. 2025 • Age: 8 hours

Aktueller Status

Höhe 544.4 km
Geschwindigkeit 7.60 km/s
Subsatellitenpunkt 48.16°N, 55.34°E
Startdatum 6. Mai 2022
Alter 3.6 years
Typ internet

Technische Details

Klassifizierung Payload
Masse 297.00 kg
Trockenmasse 220.00 kg
Gesamtmasse 297.00 kg
Länge 0.20 m
Durchmesser 2.80 m
Spannweite 9.00 m
Form Box + pan
Hersteller SPXS
Bus-Typ Starlink
Phasenstatus In Orbit
Besitzer/Staat SPXS/US

Große Konstellationen

Loading constellations...